FW4572 Weather Reports


time (UTC)temp
C
wind
direction
speed
KPH
gust
KPH
rain 1hr
cm
rain 24hr
cm
rain mn
cm
humidity
%
barometer
mb
20260510231328 25 315 0.0 0.0 0.00 0.00 0.00 57 1017.5
20260510230326 25 315 0.0 0.0 0.00 0.00 0.00 52 1017.4
20260510225327 25 315 0.0 0.0 0.00 0.00 0.00 50 1017.5
20260510223345 26 315 0.0 0.0 0.00 0.00 0.00 46 1017.5
20260510220427 27 315 0.0 0.0 0.00 0.00 0.00 42 1017.4
20260510215525 28 315 0.0 0.0 0.00 0.00 0.00 38 1017.3
20260510214525 30 315 0.0 0.0 0.00 0.00 0.00 37 1017.4
20260510213526 30 211 1.6 4.8 0.00 0.00 0.00 34 1017.4
20260510212528 30 180 0.0 0.0 0.00 0.00 0.00 37 1017.5
20260510211528 29 180 0.0 1.6 0.00 0.00 0.00 36 1017.6
20260510205625 28 180 3.2 4.8 0.00 0.00 0.00 35 1017.7
20260510203726 27 180 3.2 4.8 0.00 0.00 0.00 36 1017.9
20260510202741 28 180 8.0 11.3 0.00 0.00 0.00 35 1017.9
20260510201745 28 180 0.0 1.6 0.00 0.00 0.00 35 1017.9
20260510200826 28 180 0.0 0.0 0.00 0.00 0.00 36 1018.0
20260510194829 28 180 3.2 6.4 0.00 0.00 0.00 36 1018.2
20260510192827 28 202 0.0 1.6 0.00 0.00 0.00 35 1018.2
20260510191828 28 180 1.6 3.2 0.00 0.00 0.00 36 1018.3
20260510190825 28 180 1.6 4.8 0.00 0.00 0.00 37 1018.1
20260510185841 27 337 0.0 0.0 0.00 0.00 0.00 39 1018.3
20260510182925 28 296 1.6 3.2 0.00 0.00 0.00 39 1018.6
20260510180929 27 180 3.2 8.0 0.00 0.00 0.00 40 1018.7
20260510175926 28 180 4.8 8.0 0.00 0.00 0.00 40 1018.8
20260510174926 27 360 0.0 3.2 0.00 0.00 0.00 43 1018.9
20260510173926 27 180 6.4 8.0 0.00 0.00 0.00 43 1018.9
20260510173843 27 180 6.4 8.0 0.00 0.00 0.00 43 1019.1
20260510172826 26 180 0.0 1.6 0.00 0.00 0.00 41 1019.0
20260510171828 26 321 3.2 4.8 0.00 0.00 0.00 41 1018.9
20260510170825 26 180 4.8 8.0 0.00 0.00 0.00 44 1019.0
20260510165826 26 180 3.2 4.8 0.00 0.00 0.00 44 1019.1
20260510164825 26 180 6.4 11.3 0.00 0.00 0.00 48 1019.0
20260510163827 26 180 0.0 0.0 0.00 0.00 0.00 50 1019.1
20260510162826 25 180 3.2 6.4 0.00 0.00 0.00 50 1019.0
20260510161826 26 180 4.8 8.0 0.00 0.00 0.00 50 1019.0
20260510160826 26 337 0.0 0.0 0.00 0.00 0.00 53 1019.1
20260510155825 26 273 0.0 0.0 0.00 0.00 0.00 57 1019.0
20260510153926 25 180 6.4 8.0 0.00 0.00 0.00 63 1019.1
20260510153827 25 180 4.8 9.7 0.00 0.00 0.00 64 1019.1
20260510145944 24 225 1.6 4.8 0.00 0.00 0.00 69 1019.1
20260510144925 23 188 0.0 3.2 0.00 0.00 0.00 71 1019.2
20260510143943 23 312 0.0 0.0 0.00 0.00 0.00 73 1019.0
20260510142926 22 337 0.0 1.6 0.00 0.00 0.00 78 1019.0
20260510141927 22 204 4.8 11.3 0.00 0.00 0.00 80 1019.0
20260510140926 21 315 0.0 0.0 0.00 0.00 0.00 84 1018.9
20260510135925 20 217 4.8 8.0 0.00 0.00 0.00 86 1018.9
20260510135827 20 199 6.4 9.7 0.00 0.00 0.00 87 1018.9
20260510134826 20 205 9.7 11.3 0.00 0.00 0.00 88 1019.0
20260510133825 20 212 3.2 4.8 0.00 0.00 0.00 89 1018.9
20260510131827 18 176 3.2 8.0 0.00 0.00 0.00 92 1019.0
20260510130827 18 165 3.2 6.4 0.00 0.00 0.00 93 1018.9
20260510125825 17 296 0.0 6.4 0.00 0.00 0.00 94 1019.0
20260510124825 17 218 0.0 4.8 0.00 0.00 0.00 94 1018.9
20260510124727 17 236 0.0 4.8 0.00 0.00 0.00 95 1018.7
20260510122827 16 227 0.0 3.2 0.00 0.00 0.00 96 1018.7
20260510121925 15 202 0.0 0.0 0.00 0.00 0.00 95 1018.3
20260510121841 15 202 0.0 0.0 0.00 0.00 0.00 95 1018.4
20260510120926 15 202 0.0 0.0 0.00 0.00 0.00 94 1018.3
20260510115926 15 202 0.0 0.0 0.00 0.00 0.00 94 1018.3
20260510115025 15 202 0.0 0.0 0.00 0.00 0.00 95 1018.1
20260510114027 15 202 0.0 0.0 0.00 0.00 0.00 95 1017.9
20260510113027 15 202 0.0 0.0 0.00 0.00 0.00 95 1017.6
20260510112125 15 202 0.0 0.0 0.00 0.00 0.00 94 1017.7
20260510112026 15 202 0.0 0.0 0.00 0.00 0.00 94 1017.7
20260510111027 15 202 0.0 0.0 0.00 0.00 0.00 94 1017.5
20260510110026 15 202 0.0 0.0 0.00 0.00 0.00 93 1017.3
20260510105042 15 202 0.0 0.0 0.00 0.00 0.00 93 1017.2
20260510103124 16 202 0.0 0.0 0.00 0.00 0.00 93 1017.0
20260510102125 16 202 0.0 0.0 0.00 0.00 0.00 92 1017.0
20260510101025 16 202 0.0 0.0 0.00 0.00 0.00 92 1016.9
20260510100024 16 202 0.0 0.0 0.00 0.00 0.00 91 1016.7
20260510095025 16 29 0.0 1.6 0.00 0.00 0.00 92 1016.5
20260510092925 16 269 0.0 0.0 0.00 0.00 0.00 92 1016.5
20260510091925 16 337 0.0 0.0 0.00 0.00 0.00 92 1016.4
20260510090927 16 337 0.0 0.0 0.00 0.00 0.00 92 1016.5
20260510085926 16 315 0.0 1.6 0.00 0.00 0.00 92 1016.4
20260510084942 16 233 1.6 6.4 0.00 0.00 0.00 91 1016.1
20260510082944 17 235 3.2 8.0 0.00 0.00 0.00 90 1016.2
20260510081926 17 203 0.0 4.8 0.00 0.00 0.00 91 1016.4
20260510080927 17 215 4.8 8.0 0.00 0.00 0.00 91 1016.2
20260510075925 17 245 4.8 8.0 0.00 0.00 0.00 90 1016.0
20260510074925 17 228 1.6 3.2 0.00 0.00 0.00 90 1015.9
20260510073925 17 229 6.4 9.7 0.00 0.00 0.00 89 1015.7
20260510071925 17 205 6.4 11.3 0.00 0.00 0.00 90 1015.7
20260510070925 17 255 4.8 9.7 0.00 0.00 0.00 90 1015.7
20260510064827 17 232 4.8 14.5 0.00 0.00 0.00 90 1015.8
20260510063925 16 261 3.2 6.4 0.00 0.00 0.00 89 1015.7
20260510062926 16 226 3.2 6.4 0.00 0.00 0.00 90 1015.8
20260510062025 16 225 4.8 6.4 0.00 0.00 0.00 89 1015.7
20260510061028 16 236 4.8 8.0 0.00 0.00 0.00 88 1015.8
20260510060024 16 205 4.8 6.4 0.00 0.00 0.00 88 1015.7
20260510055027 16 245 4.8 9.7 0.00 0.00 0.00 87 1015.8
20260510054925 16 228 4.8 9.7 0.00 0.00 0.00 87 1015.8
20260510053926 17 228 4.8 6.4 0.00 0.00 0.00 85 1015.8
20260510052026 17 196 6.4 11.3 0.00 0.00 0.00 83 1015.8
20260510051024 17 173 1.6 6.4 0.00 0.00 0.00 81 1015.8
20260510050026 17 213 8.0 12.9 0.00 0.00 0.00 80 1015.8
20260510044126 17 215 0.0 4.8 0.00 0.00 0.00 76 1015.8
20260510043126 17 199 0.0 4.8 0.00 0.00 0.00 73 1015.8
20260510042126 17 149 0.0 0.0 0.00 0.00 0.00 71 1015.8
20260510041127 17 136 0.0 3.2 0.00 0.00 0.00 68 1015.8
20260510040127 17 112 0.0 0.0 0.00 0.00 0.00 67 1015.7
20260510035225 17 112 0.0 0.0 0.00 0.00 0.00 66 1015.7
20260510034227 17 180 0.0 0.0 0.00 0.00 0.00 64 1015.6
20260510033225 17 180 0.0 0.0 0.00 0.00 0.00 64 1015.8
20260510032325 17 180 0.0 0.0 0.00 0.00 0.00 65 1015.8
20260510030326 18 180 0.0 0.0 0.00 0.00 0.00 63 1015.7
20260510023326 17 180 0.0 0.0 0.00 0.00 0.00 62 1015.4
20260510022326 17 180 0.0 0.0 0.00 0.00 0.00 63 1015.1
20260510021326 17 180 0.0 0.0 0.00 0.00 0.00 63 1014.7
20260510020325 18 180 0.0 0.0 0.00 0.00 0.00 64 1014.7
20260510015326 19 180 0.0 0.0 0.00 0.00 0.00 60 1014.5
20260510012325 19 180 0.0 0.0 0.00 0.00 0.00 60 1014.1
20260510012242 19 180 0.0 0.0 0.00 0.00 0.00 60 1014.1
20260510010326 19 180 0.0 0.0 0.00 0.00 0.00 60 1013.9
20260510005325 20 180 0.0 0.0 0.00 0.00 0.00 58 1013.9
20260510004326 20 180 0.0 0.0 0.00 0.00 0.00 56 1013.5
20260510003326 21 180 0.0 0.0 0.00 0.00 0.00 55 1013.4
20260510002343 21 180 0.0 0.0 0.00 0.00 0.00 54 1013.4
20260510001426 22 180 0.0 0.0 0.00 0.00 0.00 53 1013.3
20260510001328 22 180 0.0 0.0 0.00 0.00 0.00 53 1013.3
20260510000326 23 180 0.0 0.0 0.00 0.00 0.00 50 1013.3
20260509235326 23 180 0.0 0.0 0.00 0.00 0.00 50 1013.2
20260509234327 24 180 0.0 0.0 0.00 0.00 0.00 48 1013.3
20260509232327 26 180 0.0 0.0 0.00 0.00 0.00 46 1013.2